﻿測定場所 (Monitoring sites),日付 (Measurement date),時間 (Measurement time),線量率 最大値 (max) μGy/h,線量率 最小値 (min) μGy/h,線量率 平均値 (average) μGy/h,
江戸川 (Edogawa),2014-12-28,23:01～24:00,0.0711,0.0635,0.0678,
江戸川 (Edogawa),2014-12-28,22:01～23:00,0.0702,0.0641,0.0675,
江戸川 (Edogawa),2014-12-28,21:01～22:00,0.0709,0.0637,0.0672,
江戸川 (Edogawa),2014-12-28,20:01～21:00,0.0722,0.0645,0.0675,
江戸川 (Edogawa),2014-12-28,19:01～20:00,0.0697,0.0635,0.0675,
江戸川 (Edogawa),2014-12-28,18:01～19:00,0.0715,0.0644,0.0677,
江戸川 (Edogawa),2014-12-28,17:01～18:00,0.0710,0.0648,0.0674,
江戸川 (Edogawa),2014-12-28,16:01～17:00,0.0712,0.0652,0.0679,
江戸川 (Edogawa),2014-12-28,15:01～16:00,0.0718,0.0648,0.0684,
江戸川 (Edogawa),2014-12-28,14:01～15:00,0.0714,0.0651,0.0680,
江戸川 (Edogawa),2014-12-28,13:01～14:00,0.0719,0.0642,0.0679,
江戸川 (Edogawa),2014-12-28,12:01～13:00,0.0710,0.0637,0.0679,
江戸川 (Edogawa),2014-12-28,11:01～12:00,0.0726,0.0642,0.0681,
江戸川 (Edogawa),2014-12-28,10:01～11:00,0.0706,0.0639,0.0675,
江戸川 (Edogawa),2014-12-28,09:01～10:00,0.0725,0.0645,0.0676,
江戸川 (Edogawa),2014-12-28,08:01～09:00,0.0725,0.0641,0.0674,
江戸川 (Edogawa),2014-12-28,07:01～08:00,0.0698,0.0630,0.0671,
江戸川 (Edogawa),2014-12-28,06:01～07:00,0.0704,0.0620,0.0669,
江戸川 (Edogawa),2014-12-28,05:01～06:00,0.0715,0.0604,0.0669,
江戸川 (Edogawa),2014-12-28,04:01～05:00,0.0706,0.0632,0.0666,
江戸川 (Edogawa),2014-12-28,03:01～04:00,0.0716,0.0642,0.0666,
江戸川 (Edogawa),2014-12-28,02:01～03:00,0.0684,0.0635,0.0661,
江戸川 (Edogawa),2014-12-28,01:01～02:00,0.0700,0.0636,0.0664,
江戸川 (Edogawa),2014-12-28,00:01～01:00,0.0686,0.0633,0.0659,
江戸川 (Edogawa),2014-12-27,23:01～24:00,0.0696,0.0631,0.0663,
江戸川 (Edogawa),2014-12-27,22:01～23:00,0.0699,0.0619,0.0665,
江戸川 (Edogawa),2014-12-27,21:01～22:00,0.0691,0.0633,0.0663,
江戸川 (Edogawa),2014-12-27,20:01～21:00,0.0696,0.0618,0.0664,
江戸川 (Edogawa),2014-12-27,19:01～20:00,0.0708,0.0622,0.0662,
江戸川 (Edogawa),2014-12-27,18:01～19:00,0.0700,0.0628,0.0667,
江戸川 (Edogawa),2014-12-27,17:01～18:00,0.0708,0.0632,0.0664,
江戸川 (Edogawa),2014-12-27,16:01～17:00,0.0706,0.0635,0.0669,
江戸川 (Edogawa),2014-12-27,15:01～16:00,0.0706,0.0629,0.0668,
江戸川 (Edogawa),2014-12-27,14:01～15:00,0.0710,0.0632,0.0671,
江戸川 (Edogawa),2014-12-27,13:01～14:00,0.0703,0.0639,0.0672,
江戸川 (Edogawa),2014-12-27,12:01～13:00,0.0715,0.0633,0.0671,
江戸川 (Edogawa),2014-12-27,11:01～12:00,0.0703,0.0629,0.0670,
江戸川 (Edogawa),2014-12-27,10:01～11:00,0.0699,0.0613,0.0664,
江戸川 (Edogawa),2014-12-27,09:01～10:00,0.0713,0.0625,0.0664,
江戸川 (Edogawa),2014-12-27,08:01～09:00,0.0699,0.0626,0.0661,
江戸川 (Edogawa),2014-12-27,07:01～08:00,0.0699,0.0631,0.0659,
江戸川 (Edogawa),2014-12-27,06:01～07:00,0.0707,0.0625,0.0664,
江戸川 (Edogawa),2014-12-27,05:01～06:00,0.0694,0.0634,0.0662,
江戸川 (Edogawa),2014-12-27,04:01～05:00,0.0693,0.0633,0.0664,
江戸川 (Edogawa),2014-12-27,03:01～04:00,0.0703,0.0625,0.0667,
江戸川 (Edogawa),2014-12-27,02:01～03:00,0.0699,0.0614,0.0665,
江戸川 (Edogawa),2014-12-27,01:01～02:00,0.0718,0.0636,0.0665,
江戸川 (Edogawa),2014-12-27,00:01～01:00,0.0703,0.0627,0.0667,
江戸川 (Edogawa),2014-12-26,23:01～24:00,0.0705,0.0647,0.0672,
江戸川 (Edogawa),2014-12-26,22:01～23:00,0.0713,0.0627,0.0672,
江戸川 (Edogawa),2014-12-26,21:01～22:00,0.0714,0.0633,0.0671,
江戸川 (Edogawa),2014-12-26,20:01～21:00,0.0704,0.0631,0.0671,
江戸川 (Edogawa),2014-12-26,19:01～20:00,0.0707,0.0625,0.0673,
江戸川 (Edogawa),2014-12-26,18:01～19:00,0.0713,0.0618,0.0674,
江戸川 (Edogawa),2014-12-26,17:01～18:00,0.0714,0.0633,0.0671,
江戸川 (Edogawa),2014-12-26,16:01～17:00,0.0706,0.0641,0.0673,
江戸川 (Edogawa),2014-12-26,15:01～16:00,0.0714,0.0640,0.0674,
江戸川 (Edogawa),2014-12-26,14:01～15:00,0.0725,0.0645,0.0678,
江戸川 (Edogawa),2014-12-26,13:01～14:00,0.0705,0.0643,0.0676,
江戸川 (Edogawa),2014-12-26,12:01～13:00,0.0704,0.0632,0.0675,
江戸川 (Edogawa),2014-12-26,11:01～12:00,0.0720,0.0630,0.0678,
江戸川 (Edogawa),2014-12-26,10:01～11:00,0.0716,0.0643,0.0670,
江戸川 (Edogawa),2014-12-26,09:01～10:00,0.0704,0.0638,0.0670,
江戸川 (Edogawa),2014-12-26,08:01～09:00,0.0698,0.0638,0.0664,
江戸川 (Edogawa),2014-12-26,07:01～08:00,0.0701,0.0629,0.0665,
江戸川 (Edogawa),2014-12-26,06:01～07:00,0.0709,0.0626,0.0665,
江戸川 (Edogawa),2014-12-26,05:01～06:00,0.0705,0.0621,0.0665,
江戸川 (Edogawa),2014-12-26,04:01～05:00,0.0697,0.0630,0.0664,
江戸川 (Edogawa),2014-12-26,03:01～04:00,0.0688,0.0625,0.0662,
江戸川 (Edogawa),2014-12-26,02:01～03:00,0.0707,0.0628,0.0668,
江戸川 (Edogawa),2014-12-26,01:01～02:00,0.0704,0.0628,0.0666,
江戸川 (Edogawa),2014-12-26,00:01～01:00,0.0700,0.0623,0.0664,
江戸川 (Edogawa),2014-12-25,23:01～24:00,0.0705,0.0631,0.0665,
江戸川 (Edogawa),2014-12-25,22:01～23:00,0.0704,0.0634,0.0664,
江戸川 (Edogawa),2014-12-25,21:01～22:00,0.0719,0.0627,0.0660,
江戸川 (Edogawa),2014-12-25,20:01～21:00,0.0698,0.0618,0.0663,
江戸川 (Edogawa),2014-12-25,19:01～20:00,0.0703,0.0617,0.0666,
江戸川 (Edogawa),2014-12-25,18:01～19:00,0.0697,0.0634,0.0667,
江戸川 (Edogawa),2014-12-25,17:01～18:00,0.0692,0.0623,0.0659,
江戸川 (Edogawa),2014-12-25,16:01～17:00,0.0727,0.0637,0.0667,
江戸川 (Edogawa),2014-12-25,15:01～16:00,0.0704,0.0633,0.0668,
江戸川 (Edogawa),2014-12-25,14:01～15:00,0.0714,0.0635,0.0669,
江戸川 (Edogawa),2014-12-25,13:01～14:00,0.0710,0.0638,0.0671,
江戸川 (Edogawa),2014-12-25,12:01～13:00,0.0696,0.0638,0.0669,
江戸川 (Edogawa),2014-12-25,11:01～12:00,0.0698,0.0626,0.0669,
江戸川 (Edogawa),2014-12-25,10:01～11:00,0.0700,0.0633,0.0668,
江戸川 (Edogawa),2014-12-25,09:01～10:00,0.0707,0.0625,0.0665,
江戸川 (Edogawa),2014-12-25,08:01～09:00,0.0701,0.0629,0.0665,
江戸川 (Edogawa),2014-12-25,07:01～08:00,0.0698,0.0638,0.0665,
江戸川 (Edogawa),2014-12-25,06:01～07:00,0.0694,0.0626,0.0667,
江戸川 (Edogawa),2014-12-25,05:01～06:00,0.0705,0.0622,0.0669,
江戸川 (Edogawa),2014-12-25,04:01～05:00,0.0705,0.0642,0.0667,
江戸川 (Edogawa),2014-12-25,03:01～04:00,0.0708,0.0619,0.0669,
江戸川 (Edogawa),2014-12-25,02:01～03:00,0.0708,0.0635,0.0666,
江戸川 (Edogawa),2014-12-25,01:01～02:00,0.0719,0.0640,0.0671,
江戸川 (Edogawa),2014-12-25,00:01～01:00,0.0704,0.0624,0.0667,
江戸川 (Edogawa),2014-12-24,23:01～24:00,0.0708,0.0630,0.0672,
江戸川 (Edogawa),2014-12-24,22:01～23:00,0.0703,0.0644,0.0670,
江戸川 (Edogawa),2014-12-24,21:01～22:00,0.0693,0.0632,0.0665,
江戸川 (Edogawa),2014-12-24,20:01～21:00,0.0718,0.0630,0.0676,
江戸川 (Edogawa),2014-12-24,19:01～20:00,0.0706,0.0637,0.0671,
江戸川 (Edogawa),2014-12-24,18:01～19:00,0.0706,0.0616,0.0669,
江戸川 (Edogawa),2014-12-24,17:01～18:00,0.0707,0.0644,0.0668,
江戸川 (Edogawa),2014-12-24,16:01～17:00,0.0724,0.0648,0.0677,
江戸川 (Edogawa),2014-12-24,15:01～16:00,0.0708,0.0626,0.0675,
江戸川 (Edogawa),2014-12-24,14:01～15:00,0.0717,0.0626,0.0677,
江戸川 (Edogawa),2014-12-24,13:01～14:00,0.0712,0.0630,0.0675,
江戸川 (Edogawa),2014-12-24,12:01～13:00,0.0717,0.0627,0.0675,
江戸川 (Edogawa),2014-12-24,11:01～12:00,0.0710,0.0643,0.0674,
江戸川 (Edogawa),2014-12-24,10:01～11:00,0.0700,0.0640,0.0666,
江戸川 (Edogawa),2014-12-24,09:01～10:00,0.0695,0.0635,0.0665,
江戸川 (Edogawa),2014-12-24,08:01～09:00,0.0708,0.0622,0.0662,
江戸川 (Edogawa),2014-12-24,07:01～08:00,0.0703,0.0627,0.0662,
江戸川 (Edogawa),2014-12-24,06:01～07:00,0.0701,0.0628,0.0664,
江戸川 (Edogawa),2014-12-24,05:01～06:00,0.0694,0.0625,0.0661,
江戸川 (Edogawa),2014-12-24,04:01～05:00,0.0687,0.0621,0.0660,
江戸川 (Edogawa),2014-12-24,03:01～04:00,0.0718,0.0622,0.0658,
江戸川 (Edogawa),2014-12-24,02:01～03:00,0.0697,0.0625,0.0659,
江戸川 (Edogawa),2014-12-24,01:01～02:00,0.0689,0.0617,0.0655,
江戸川 (Edogawa),2014-12-24,00:01～01:00,0.0691,0.0631,0.0659,
江戸川 (Edogawa),2014-12-23,23:01～24:00,0.0699,0.0620,0.0661,
江戸川 (Edogawa),2014-12-23,22:01～23:00,0.0695,0.0632,0.0658,
江戸川 (Edogawa),2014-12-23,21:01～22:00,0.0702,0.0626,0.0661,
江戸川 (Edogawa),2014-12-23,20:01～21:00,0.0700,0.0630,0.0659,
江戸川 (Edogawa),2014-12-23,19:01～20:00,0.0703,0.0624,0.0661,
江戸川 (Edogawa),2014-12-23,18:01～19:00,0.0691,0.0634,0.0659,
江戸川 (Edogawa),2014-12-23,17:01～18:00,0.0685,0.0615,0.0657,
江戸川 (Edogawa),2014-12-23,16:01～17:00,0.0701,0.0629,0.0662,
江戸川 (Edogawa),2014-12-23,15:01～16:00,0.0696,0.0632,0.0664,
江戸川 (Edogawa),2014-12-23,14:01～15:00,0.0701,0.0633,0.0669,
江戸川 (Edogawa),2014-12-23,13:01～14:00,0.0711,0.0646,0.0673,
江戸川 (Edogawa),2014-12-23,12:01～13:00,0.0712,0.0639,0.0671,
江戸川 (Edogawa),2014-12-23,11:01～12:00,0.0719,0.0635,0.0669,
江戸川 (Edogawa),2014-12-23,10:01～11:00,0.0708,0.0630,0.0667,
江戸川 (Edogawa),2014-12-23,09:01～10:00,0.0692,0.0627,0.0663,
江戸川 (Edogawa),2014-12-23,08:01～09:00,0.0700,0.0637,0.0663,
江戸川 (Edogawa),2014-12-23,07:01～08:00,0.0705,0.0624,0.0660,
江戸川 (Edogawa),2014-12-23,06:01～07:00,0.0705,0.0619,0.0660,
江戸川 (Edogawa),2014-12-23,05:01～06:00,0.0707,0.0619,0.0661,
江戸川 (Edogawa),2014-12-23,04:01～05:00,0.0702,0.0623,0.0660,
江戸川 (Edogawa),2014-12-23,03:01～04:00,0.0690,0.0625,0.0655,
江戸川 (Edogawa),2014-12-23,02:01～03:00,0.0698,0.0621,0.0659,
江戸川 (Edogawa),2014-12-23,01:01～02:00,0.0715,0.0617,0.0657,
江戸川 (Edogawa),2014-12-23,00:01～01:00,0.0699,0.0625,0.0664,
江戸川 (Edogawa),2014-12-22,23:01～24:00,0.0697,0.0618,0.0657,
江戸川 (Edogawa),2014-12-22,22:01～23:00,0.0699,0.0620,0.0660,
江戸川 (Edogawa),2014-12-22,21:01～22:00,0.0700,0.0619,0.0658,
江戸川 (Edogawa),2014-12-22,20:01～21:00,0.0701,0.0629,0.0660,
江戸川 (Edogawa),2014-12-22,19:01～20:00,0.0697,0.0627,0.0659,
江戸川 (Edogawa),2014-12-22,18:01～19:00,0.0689,0.0633,0.0663,
江戸川 (Edogawa),2014-12-22,17:01～18:00,0.0703,0.0627,0.0663,
江戸川 (Edogawa),2014-12-22,16:01～17:00,0.0714,0.0621,0.0667,
江戸川 (Edogawa),2014-12-22,15:01～16:00,0.0702,0.0635,0.0668,
江戸川 (Edogawa),2014-12-22,14:01～15:00,0.0704,0.0630,0.0670,
江戸川 (Edogawa),2014-12-22,13:01～14:00,0.0697,0.0627,0.0665,
江戸川 (Edogawa),2014-12-22,12:01～13:00,0.0701,0.0642,0.0671,
江戸川 (Edogawa),2014-12-22,11:01～12:00,0.0696,0.0631,0.0669,
江戸川 (Edogawa),2014-12-22,10:01～11:00,0.0702,0.0614,0.0664,
江戸川 (Edogawa),2014-12-22,09:01～10:00,0.0701,0.0631,0.0665,
江戸川 (Edogawa),2014-12-22,08:01～09:00,0.0693,0.0626,0.0661,
江戸川 (Edogawa),2014-12-22,07:01～08:00,0.0697,0.0620,0.0659,
江戸川 (Edogawa),2014-12-22,06:01～07:00,0.0691,0.0620,0.0657,
江戸川 (Edogawa),2014-12-22,05:01～06:00,0.0699,0.0615,0.0657,
江戸川 (Edogawa),2014-12-22,04:01～05:00,0.0695,0.0624,0.0657,
江戸川 (Edogawa),2014-12-22,03:01～04:00,0.0698,0.0624,0.0664,
江戸川 (Edogawa),2014-12-22,02:01～03:00,0.0698,0.0627,0.0666,
江戸川 (Edogawa),2014-12-22,01:01～02:00,0.0701,0.0616,0.0668,
江戸川 (Edogawa),2014-12-22,00:01～01:00,0.0724,0.0630,0.0669,
